Time,TemperatureF,DewpointF,PressureIn,WindDirection,WindDirectionDegrees,WindSpeedMPH,WindSpeedGustMPH,Humidity,HourlyPrecipIn,Conditions,Clouds,dailyrainin,SoftwareType,DateUTC
2013-08-31 00:01:00,72.4,67.3,29.79,North,-999,-999.0,0.0,84,0.00,,---,0.00,VWS V14.01,2013-08-31 04:01:00,
2013-08-31 00:03:00,72.4,67.3,29.79,North,-999,-999.0,0.0,84,0.00,,---,0.00,VWS V14.01,2013-08-31 04:03:00,
2013-08-31 00:04:00,72.4,67.3,29.79,North,-999,-999.0,0.0,84,0.00,,---,0.00,VWS V14.01,2013-08-31 04:04:00,
2013-08-31 00:06:00,72.4,67.3,29.79,North,-999,-999.0,0.0,84,0.00,,---,0.00,VWS V14.01,2013-08-31 04:06:00,
2013-08-31 00:11:00,72.4,67.3,29.79,North,-999,-999.0,0.0,84,0.00,,---,0.00,VWS V14.01,2013-08-31 04:11:00,
2013-08-31 00:15:00,72.5,67.4,29.79,North,-999,-999.0,0.0,84,0.00,,---,0.00,VWS V14.01,2013-08-31 04:15:00,
2013-08-31 00:20:00,72.5,67.4,29.79,North,-999,-999.0,0.0,84,0.00,,---,0.00,VWS V14.01,2013-08-31 04:20:00,
2013-08-31 00:25:00,72.5,67.4,29.79,North,-999,-999.0,0.0,84,0.00,,---,0.00,VWS V14.01,2013-08-31 04:25:00,
2013-08-31 00:30:00,72.5,67.4,29.79,North,-999,-999.0,0.0,84,0.00,,---,0.00,VWS V14.01,2013-08-31 04:30:00,
2013-08-31 00:35:00,72.7,67.6,29.79,North,-999,-999.0,0.0,84,0.00,,---,0.00,VWS V14.01,2013-08-31 04:35:00,
2013-08-31 00:40:00,72.7,67.6,29.78,North,-999,-999.0,0.0,84,0.00,,---,0.00,VWS V14.01,2013-08-31 04:40:00,
2013-08-31 00:45:00,72.4,67.3,29.79,North,-999,-999.0,0.0,84,0.00,,---,0.00,VWS V14.01,2013-08-31 04:45:00,
2013-08-31 00:50:00,72.4,67.6,29.79,North,-999,-999.0,0.0,85,0.00,,---,0.00,VWS V14.01,2013-08-31 04:50:00,
2013-08-31 00:55:00,72.2,67.4,29.78,North,-999,-999.0,0.0,85,0.00,,---,0.00,VWS V14.01,2013-08-31 04:55:00,
2013-08-31 01:01:00,72.2,67.4,29.78,North,-999,-999.0,0.0,85,0.00,,---,0.00,VWS V14.01,2013-08-31 05:01:00,
2013-08-31 01:06:00,72.0,67.2,29.78,North,-999,-999.0,0.0,85,0.00,,---,0.00,VWS V14.01,2013-08-31 05:06:00,
2013-08-31 01:11:00,71.8,67.1,29.78,North,-999,-999.0,0.0,85,0.00,,---,0.00,VWS V14.01,2013-08-31 05:11:00,
2013-08-31 01:16:00,71.6,66.9,29.78,North,-999,-999.0,0.0,85,0.00,,---,0.00,VWS V14.01,2013-08-31 05:16:00,
2013-08-31 01:21:00,71.6,67.2,29.78,North,-999,-999.0,0.0,86,0.00,,---,0.00,VWS V14.01,2013-08-31 05:21:00,
2013-08-31 01:26:00,71.5,67.1,29.78,North,-999,-999.0,0.0,86,0.00,,---,0.00,VWS V14.01,2013-08-31 05:26:00,
2013-08-31 01:31:00,71.3,66.9,29.78,North,-999,-999.0,0.0,86,0.00,,---,0.00,VWS V14.01,2013-08-31 05:31:00,
2013-08-31 01:36:00,71.3,66.9,29.78,North,-999,-999.0,0.0,86,0.00,,---,0.00,VWS V14.01,2013-08-31 05:36:00,
2013-08-31 01:41:00,71.3,66.9,29.78,North,-999,-999.0,0.0,86,0.00,,---,0.00,VWS V14.01,2013-08-31 05:41:00,
2013-08-31 01:46:00,71.1,66.7,29.78,North,-999,-999.0,0.0,86,0.00,,---,0.00,VWS V14.01,2013-08-31 05:46:00,
2013-08-31 01:51:00,70.9,66.5,29.78,North,-999,-999.0,0.0,86,0.00,,---,0.00,VWS V14.01,2013-08-31 05:51:00,
2013-08-31 01:56:00,71.1,66.7,29.77,North,-999,-999.0,0.0,86,0.00,,---,0.00,VWS V14.01,2013-08-31 05:56:00,
2013-08-31 02:01:00,71.1,66.7,29.77,North,-999,-999.0,0.0,86,0.00,,---,0.00,VWS V14.01,2013-08-31 06:01:00,
2013-08-31 02:07:00,71.1,67.0,29.77,North,-999,-999.0,0.0,87,0.00,,---,0.00,VWS V14.01,2013-08-31 06:07:00,
2013-08-31 02:12:00,71.1,67.0,29.77,North,-999,-999.0,0.0,87,0.00,,---,0.00,VWS V14.01,2013-08-31 06:12:00,
2013-08-31 02:17:00,71.1,67.0,29.77,North,-999,-999.0,0.0,87,0.00,,---,0.00,VWS V14.01,2013-08-31 06:17:00,
2013-08-31 02:22:00,70.9,66.8,29.77,North,-999,-999.0,0.0,87,0.00,,---,0.00,VWS V14.01,2013-08-31 06:22:00,
2013-08-31 02:27:00,70.9,66.8,29.77,North,-999,-999.0,0.0,87,0.00,,---,0.00,VWS V14.01,2013-08-31 06:27:00,
2013-08-31 02:32:00,70.9,66.8,29.77,North,-999,-999.0,0.0,87,0.00,,---,0.00,VWS V14.01,2013-08-31 06:32:00,
2013-08-31 02:37:00,71.1,67.0,29.77,North,-999,-999.0,0.0,87,0.00,,---,0.00,VWS V14.01,2013-08-31 06:37:00,
2013-08-31 02:42:00,71.3,67.2,29.77,North,-999,-999.0,0.0,87,0.00,,---,0.00,VWS V14.01,2013-08-31 06:42:00,
2013-08-31 02:47:00,71.3,67.2,29.77,North,-999,-999.0,0.0,87,0.00,,---,0.00,VWS V14.01,2013-08-31 06:47:00,
2013-08-31 02:52:00,71.5,67.8,29.77,North,-999,-999.0,0.0,88,0.00,,---,0.00,VWS V14.01,2013-08-31 06:52:00,
2013-08-31 02:57:00,71.5,67.4,29.77,North,-999,-999.0,0.0,87,0.00,,---,0.00,VWS V14.01,2013-08-31 06:57:00,
2013-08-31 03:02:00,71.5,67.4,29.77,North,-999,-999.0,0.0,87,0.00,,---,0.00,VWS V14.01,2013-08-31 07:02:00,
2013-08-31 03:08:00,71.5,67.8,29.78,North,-999,-999.0,0.0,88,0.00,,---,0.00,VWS V14.01,2013-08-31 07:08:00,
2013-08-31 03:13:00,71.3,67.6,29.77,North,-999,-999.0,0.0,88,0.00,,---,0.00,VWS V14.01,2013-08-31 07:13:00,
2013-08-31 03:18:00,71.3,67.6,29.77,North,-999,-999.0,0.0,88,0.00,,---,0.00,VWS V14.01,2013-08-31 07:18:00,
2013-08-31 03:23:00,71.3,67.6,29.77,North,-999,-999.0,0.0,88,0.00,,---,0.00,VWS V14.01,2013-08-31 07:23:00,
2013-08-31 03:28:00,71.5,67.8,29.77,North,-999,-999.0,0.0,88,0.00,,---,0.00,VWS V14.01,2013-08-31 07:28:00,
2013-08-31 03:33:00,71.5,67.8,29.77,North,-999,-999.0,0.0,88,0.00,,---,0.00,VWS V14.01,2013-08-31 07:33:00,
2013-08-31 03:38:00,71.3,67.6,29.77,North,-999,-999.0,0.0,88,0.00,,---,0.00,VWS V14.01,2013-08-31 07:38:00,
2013-08-31 03:43:00,71.5,67.8,29.77,North,-999,-999.0,0.0,88,0.00,,---,0.00,VWS V14.01,2013-08-31 07:43:00,
2013-08-31 03:48:00,71.5,67.8,29.77,North,-999,-999.0,0.0,88,0.00,,---,0.00,VWS V14.01,2013-08-31 07:48:00,
2013-08-31 03:53:00,71.5,67.8,29.77,North,-999,-999.0,0.0,88,0.00,,---,0.00,VWS V14.01,2013-08-31 07:53:00,
2013-08-31 03:58:00,71.5,67.8,29.76,North,-999,-999.0,0.0,88,0.00,,---,0.00,VWS V14.01,2013-08-31 07:58:00,
2013-08-31 04:03:00,71.3,67.6,29.77,North,-999,-999.0,0.0,88,0.00,,---,0.00,VWS V14.01,2013-08-31 08:03:00,
2013-08-31 04:09:00,71.1,67.4,29.76,North,-999,-999.0,0.0,88,0.00,,---,0.00,VWS V14.01,2013-08-31 08:09:00,
2013-08-31 04:14:00,71.1,67.4,29.76,North,-999,-999.0,0.0,88,0.00,,---,0.00,VWS V14.01,2013-08-31 08:14:00,
2013-08-31 04:19:00,71.3,67.6,29.76,North,-999,-999.0,0.0,88,0.00,,---,0.00,VWS V14.01,2013-08-31 08:19:00,
2013-08-31 04:24:00,71.3,67.6,29.76,North,-999,-999.0,0.0,88,0.00,,---,0.00,VWS V14.01,2013-08-31 08:24:00,
2013-08-31 04:29:00,71.3,67.6,29.76,North,-999,-999.0,0.0,88,0.00,,---,0.00,VWS V14.01,2013-08-31 08:29:00,
2013-08-31 04:34:00,71.1,67.4,29.76,North,-999,-999.0,0.0,88,0.00,,---,0.00,VWS V14.01,2013-08-31 08:34:00,
2013-08-31 04:39:00,71.1,67.4,29.76,North,-999,-999.0,0.0,88,0.00,,---,0.00,VWS V14.01,2013-08-31 08:39:00,
2013-08-31 04:44:00,71.1,67.4,29.76,North,-999,-999.0,0.0,88,0.00,,---,0.00,VWS V14.01,2013-08-31 08:44:00,
2013-08-31 04:49:00,71.1,67.4,29.76,North,-999,-999.0,0.0,88,0.00,,---,0.00,VWS V14.01,2013-08-31 08:49:00,
2013-08-31 04:54:00,71.1,67.4,29.76,North,-999,-999.0,0.0,88,0.00,,---,0.00,VWS V14.01,2013-08-31 08:54:00,
2013-08-31 04:59:00,71.1,67.4,29.76,North,-999,-999.0,0.0,88,0.00,,---,0.00,VWS V14.01,2013-08-31 08:59:00,
2013-08-31 05:05:00,71.3,67.6,29.76,North,-999,-999.0,0.0,88,0.00,,---,0.00,VWS V14.01,2013-08-31 09:05:00,
2013-08-31 05:10:00,71.3,67.6,29.76,North,-999,-999.0,0.0,88,0.00,,---,0.00,VWS V14.01,2013-08-31 09:10:00,
2013-08-31 05:15:00,71.3,67.9,29.76,North,-999,-999.0,0.0,89,0.00,,---,0.00,VWS V14.01,2013-08-31 09:15:00,
2013-08-31 05:20:00,71.1,67.4,29.76,North,-999,-999.0,0.0,88,0.00,,---,0.00,VWS V14.01,2013-08-31 09:20:00,
2013-08-31 05:25:00,71.1,67.7,29.76,North,-999,-999.0,0.0,89,0.00,,---,0.00,VWS V14.01,2013-08-31 09:25:00,
2013-08-31 05:30:00,71.1,67.7,29.76,North,-999,-999.0,0.0,89,0.00,,---,0.00,VWS V14.01,2013-08-31 09:30:00,
2013-08-31 05:35:00,71.1,67.7,29.76,North,-999,-999.0,0.0,89,0.00,,---,0.00,VWS V14.01,2013-08-31 09:35:00,
2013-08-31 05:40:00,71.1,67.7,29.76,North,-999,-999.0,0.0,89,0.00,,---,0.00,VWS V14.01,2013-08-31 09:40:00,
2013-08-31 05:45:00,71.1,67.7,29.76,North,-999,-999.0,0.0,89,0.00,,---,0.00,VWS V14.01,2013-08-31 09:45:00,
2013-08-31 05:50:00,71.1,67.7,29.76,North,-999,-999.0,0.0,89,0.00,,---,0.00,VWS V14.01,2013-08-31 09:50:00,
2013-08-31 05:55:00,71.3,67.9,29.76,North,-999,-999.0,0.0,89,0.00,,---,0.00,VWS V14.01,2013-08-31 09:55:00,
2013-08-31 06:00:00,71.3,67.9,29.76,North,-999,-999.0,0.0,89,0.00,,---,0.00,VWS V14.01,2013-08-31 10:00:00,
2013-08-31 06:06:00,71.3,67.9,29.76,North,-999,-999.0,0.0,89,0.00,,---,0.00,VWS V14.01,2013-08-31 10:06:00,
2013-08-31 06:11:00,71.3,67.9,29.76,North,-999,-999.0,0.0,89,0.00,,---,0.00,VWS V14.01,2013-08-31 10:11:00,
2013-08-31 06:16:00,71.1,67.7,29.76,North,-999,-999.0,0.0,89,0.00,,---,0.00,VWS V14.01,2013-08-31 10:16:00,
2013-08-31 06:21:00,71.1,67.7,29.76,North,-999,-999.0,0.0,89,0.00,,---,0.00,VWS V14.01,2013-08-31 10:21:00,
2013-08-31 06:26:00,70.9,67.5,29.76,North,-999,-999.0,0.0,89,0.00,,---,0.00,VWS V14.01,2013-08-31 10:26:00,
2013-08-31 06:31:00,70.9,67.5,29.76,North,-999,-999.0,0.0,89,0.00,,---,0.00,VWS V14.01,2013-08-31 10:31:00,
2013-08-31 06:36:00,70.9,67.5,29.76,North,-999,-999.0,0.0,89,0.00,,---,0.00,VWS V14.01,2013-08-31 10:36:00,
2013-08-31 06:41:00,70.7,67.3,29.76,North,-999,-999.0,0.0,89,0.00,,---,0.00,VWS V14.01,2013-08-31 10:41:00,
2013-08-31 06:46:00,70.7,67.6,29.76,North,-999,-999.0,0.0,90,0.00,,---,0.00,VWS V14.01,2013-08-31 10:46:00,
2013-08-31 06:51:00,70.6,67.5,29.77,North,-999,-999.0,0.0,90,0.00,,---,0.00,VWS V14.01,2013-08-31 10:51:00,
2013-08-31 06:56:00,70.6,67.2,29.77,North,-999,-999.0,0.0,89,0.00,,---,0.00,VWS V14.01,2013-08-31 10:56:00,
2013-08-31 07:01:00,70.7,67.6,29.77,North,-999,-999.0,0.0,90,0.00,,---,0.00,VWS V14.01,2013-08-31 11:01:00,
2013-08-31 07:07:00,70.7,67.6,29.77,North,-999,-999.0,0.0,90,0.00,,---,0.00,VWS V14.01,2013-08-31 11:07:00,
2013-08-31 07:12:00,70.7,67.6,29.77,North,-999,-999.0,0.0,90,0.00,,---,0.00,VWS V14.01,2013-08-31 11:12:00,
2013-08-31 07:17:00,70.7,67.6,29.76,North,-999,-999.0,0.0,90,0.00,,---,0.00,VWS V14.01,2013-08-31 11:17:00,
2013-08-31 07:22:00,70.7,67.6,29.77,North,-999,-999.0,0.0,90,0.00,,---,0.00,VWS V14.01,2013-08-31 11:22:00,
2013-08-31 07:27:00,70.9,67.8,29.77,North,-999,-999.0,0.0,90,0.00,,---,0.00,VWS V14.01,2013-08-31 11:27:00,
2013-08-31 07:32:00,70.9,67.8,29.77,North,-999,-999.0,0.0,90,0.00,,---,0.00,VWS V14.01,2013-08-31 11:32:00,
2013-08-31 07:37:00,71.1,68.0,29.77,North,-999,-999.0,0.0,90,0.00,,---,0.00,VWS V14.01,2013-08-31 11:37:00,
2013-08-31 07:42:00,71.1,68.0,29.77,North,-999,-999.0,0.0,90,0.00,,---,0.00,VWS V14.01,2013-08-31 11:42:00,
2013-08-31 07:47:00,71.3,68.2,29.77,North,-999,-999.0,0.0,90,0.00,,---,0.00,VWS V14.01,2013-08-31 11:47:00,
2013-08-31 07:52:00,71.3,68.2,29.77,North,-999,-999.0,0.0,90,0.00,,---,0.00,VWS V14.01,2013-08-31 11:52:00,
2013-08-31 07:57:00,71.5,68.4,29.77,North,-999,-999.0,0.0,90,0.00,,---,0.00,VWS V14.01,2013-08-31 11:57:00,
2013-08-31 08:02:00,71.6,68.5,29.77,North,-999,-999.0,0.0,90,0.00,,---,0.00,VWS V14.01,2013-08-31 12:02:00,
2013-08-31 08:08:00,72.0,68.9,29.77,North,-999,-999.0,0.0,90,0.00,,---,0.00,VWS V14.01,2013-08-31 12:08:00,
2013-08-31 08:13:00,72.2,69.1,29.77,North,-999,-999.0,0.0,90,0.00,,---,0.00,VWS V14.01,2013-08-31 12:13:00,
2013-08-31 08:18:00,72.4,69.0,29.78,North,-999,-999.0,0.0,89,0.00,,---,0.00,VWS V14.01,2013-08-31 12:18:00,
2013-08-31 08:23:00,72.7,69.6,29.78,North,-999,-999.0,0.0,90,0.00,,---,0.00,VWS V14.01,2013-08-31 12:23:00,
2013-08-31 08:28:00,72.9,69.5,29.78,North,-999,-999.0,0.0,89,0.00,,---,0.00,VWS V14.01,2013-08-31 12:28:00,
2013-08-31 08:33:00,73.3,70.2,29.77,North,-999,-999.0,0.0,90,0.00,,---,0.00,VWS V14.01,2013-08-31 12:33:00,
2013-08-31 08:38:00,73.6,70.5,29.78,North,-999,-999.0,0.0,90,0.00,,---,0.00,VWS V14.01,2013-08-31 12:38:00,
2013-08-31 08:43:00,74.2,71.1,29.78,North,-999,-999.0,0.0,90,0.00,,---,0.00,VWS V14.01,2013-08-31 12:43:00,
2013-08-31 08:48:00,74.5,71.1,29.78,North,-999,-999.0,0.0,89,0.00,,---,0.00,VWS V14.01,2013-08-31 12:48:00,
2013-08-31 08:53:00,74.9,71.4,29.78,North,-999,-999.0,0.0,89,0.00,,---,0.00,VWS V14.01,2013-08-31 12:53:00,
2013-08-31 08:58:00,75.4,71.9,29.78,North,-999,-999.0,0.0,89,0.00,,---,0.00,VWS V14.01,2013-08-31 12:58:00,
2013-08-31 09:04:00,76.0,72.2,29.78,North,-999,-999.0,0.0,88,0.00,,---,0.00,VWS V14.01,2013-08-31 13:04:00,
2013-08-31 09:09:00,76.3,72.2,29.78,North,-999,-999.0,0.0,87,0.00,,---,0.00,VWS V14.01,2013-08-31 13:09:00,
2013-08-31 09:14:00,76.7,72.2,29.78,North,-999,-999.0,0.0,86,0.00,,---,0.00,VWS V14.01,2013-08-31 13:14:00,
2013-08-31 09:19:00,77.0,72.2,29.77,North,-999,-999.0,0.0,85,0.00,,---,0.00,VWS V14.01,2013-08-31 13:19:00,
2013-08-31 09:24:00,77.4,72.5,29.78,North,-999,-999.0,0.0,85,0.00,,---,0.00,VWS V14.01,2013-08-31 13:24:00,
2013-08-31 09:29:00,77.6,72.7,29.78,North,-999,-999.0,0.0,85,0.00,,---,0.00,VWS V14.01,2013-08-31 13:29:00,
2013-08-31 09:34:00,77.9,72.7,29.78,North,-999,-999.0,0.0,84,0.00,,---,0.00,VWS V14.01,2013-08-31 13:34:00,
2013-08-31 09:39:00,78.5,73.3,29.78,North,-999,-999.0,0.0,84,0.00,,---,0.00,VWS V14.01,2013-08-31 13:39:00,
2013-08-31 09:44:00,78.7,73.1,29.78,North,-999,-999.0,0.0,83,0.00,,---,0.00,VWS V14.01,2013-08-31 13:44:00,
2013-08-31 09:49:00,79.2,73.2,29.79,North,-999,-999.0,0.0,82,0.00,,---,0.00,VWS V14.01,2013-08-31 13:49:00,
2013-08-31 09:54:00,79.9,73.6,29.79,North,-999,-999.0,0.0,81,0.00,,---,0.00,VWS V14.01,2013-08-31 13:54:00,
2013-08-31 09:59:00,80.3,73.6,29.79,North,-999,-999.0,0.0,80,0.00,,---,0.00,VWS V14.01,2013-08-31 13:59:00,
2013-08-31 10:05:00,80.5,73.4,29.79,North,-999,-999.0,0.0,79,0.00,,---,0.00,VWS V14.01,2013-08-31 14:05:00,
2013-08-31 10:10:00,81.0,73.5,29.79,North,-999,-999.0,0.0,78,0.00,,---,0.00,VWS V14.01,2013-08-31 14:10:00,
2013-08-31 10:15:00,81.4,73.9,29.79,North,-999,-999.0,0.0,78,0.00,,---,0.00,VWS V14.01,2013-08-31 14:15:00,
2013-08-31 10:20:00,81.5,73.6,29.79,North,-999,-999.0,0.0,77,0.00,,---,0.00,VWS V14.01,2013-08-31 14:20:00,
2013-08-31 10:25:00,81.9,74.4,29.79,North,-999,-999.0,0.0,78,0.00,,---,0.00,VWS V14.01,2013-08-31 14:25:00,
2013-08-31 10:30:00,82.3,74.0,29.79,North,-999,-999.0,0.0,76,0.00,,---,0.00,VWS V14.01,2013-08-31 14:30:00,
2013-08-31 10:35:00,82.4,74.1,29.79,North,-999,-999.0,0.0,76,0.00,,---,0.00,VWS V14.01,2013-08-31 14:35:00,
2013-08-31 10:40:00,83.5,75.1,29.79,North,-999,-999.0,0.0,76,0.00,,---,0.00,VWS V14.01,2013-08-31 14:40:00,
2013-08-31 10:45:00,85.3,75.7,29.79,North,-999,-999.0,0.0,73,0.00,,---,0.00,VWS V14.01,2013-08-31 14:45:00,
2013-08-31 10:50:00,86.9,75.5,29.79,North,-999,-999.0,0.0,69,0.00,,---,0.00,VWS V14.01,2013-08-31 14:50:00,
2013-08-31 10:55:00,87.1,74.8,29.78,North,-999,-999.0,0.0,67,0.00,,---,0.00,VWS V14.01,2013-08-31 14:55:00,
2013-08-31 11:00:00,87.5,75.2,29.78,North,-999,-999.0,0.0,67,0.00,,---,0.00,VWS V14.01,2013-08-31 15:00:00,
2013-08-31 11:06:00,89.3,76.5,29.78,North,-999,-999.0,0.0,66,0.00,,---,0.00,VWS V14.01,2013-08-31 15:06:00,
2013-08-31 11:11:00,88.9,75.2,29.78,North,-999,-999.0,0.0,64,0.00,,---,0.00,VWS V14.01,2013-08-31 15:11:00,
2013-08-31 11:16:00,90.0,76.7,29.78,North,-999,-999.0,0.0,65,0.00,,---,0.00,VWS V14.01,2013-08-31 15:16:00,
2013-08-31 11:21:00,90.2,75.9,29.78,North,-999,-999.0,0.0,63,0.00,,---,0.00,VWS V14.01,2013-08-31 15:21:00,
2013-08-31 11:26:00,91.3,76.5,29.78,North,-999,-999.0,0.0,62,0.00,,---,0.00,VWS V14.01,2013-08-31 15:26:00,
2013-08-31 11:31:00,92.0,76.6,29.78,North,-999,-999.0,0.0,61,0.00,,---,0.00,VWS V14.01,2013-08-31 15:31:00,
2013-08-31 11:36:00,89.6,73.4,29.78,North,-999,-999.0,0.0,59,0.00,,---,0.00,VWS V14.01,2013-08-31 15:36:00,
2013-08-31 11:41:00,88.6,73.9,29.78,North,-999,-999.0,0.0,62,0.00,,---,0.00,VWS V14.01,2013-08-31 15:41:00,
2013-08-31 11:46:00,88.6,74.4,29.78,North,-999,-999.0,0.0,63,0.00,,---,0.00,VWS V14.01,2013-08-31 15:46:00,
2013-08-31 11:51:00,89.6,75.3,29.78,North,-999,-999.0,0.0,63,0.00,,---,0.00,VWS V14.01,2013-08-31 15:51:00,
2013-08-31 11:56:00,91.6,75.2,29.78,North,-999,-999.0,0.0,59,0.00,,---,0.00,VWS V14.01,2013-08-31 15:56:00,
2013-08-31 12:01:00,92.2,75.3,29.78,North,-999,-999.0,0.0,58,0.00,,---,0.00,VWS V14.01,2013-08-31 16:01:00,
2013-08-31 12:07:00,92.7,75.2,29.78,North,-999,-999.0,0.0,57,0.00,,---,0.00,VWS V14.01,2013-08-31 16:07:00,
2013-08-31 12:12:00,91.6,74.2,29.78,North,-999,-999.0,0.0,57,0.00,,---,0.00,VWS V14.01,2013-08-31 16:12:00,
2013-08-31 12:17:00,92.5,74.5,29.78,North,-999,-999.0,0.0,56,0.00,,---,0.00,VWS V14.01,2013-08-31 16:17:00,
2013-08-31 12:22:00,93.2,75.7,29.78,North,-999,-999.0,0.0,57,0.00,,---,0.00,VWS V14.01,2013-08-31 16:22:00,
2013-08-31 12:27:00,94.9,75.1,29.77,North,-999,-999.0,0.0,53,0.00,,---,0.00,VWS V14.01,2013-08-31 16:27:00,
2013-08-31 12:32:00,93.6,74.5,29.77,North,-999,-999.0,0.0,54,0.00,,---,0.00,VWS V14.01,2013-08-31 16:32:00,
2013-08-31 12:37:00,92.0,73.5,29.77,North,-999,-999.0,0.0,55,0.00,,---,0.00,VWS V14.01,2013-08-31 16:37:00,
2013-08-31 12:42:00,92.9,74.9,29.77,North,-999,-999.0,0.0,56,0.00,,---,0.00,VWS V14.01,2013-08-31 16:42:00,
2013-08-31 12:47:00,94.7,77.1,29.77,North,-999,-999.0,0.0,57,0.00,,---,0.00,VWS V14.01,2013-08-31 16:47:00,
2013-08-31 12:52:00,96.8,76.3,29.77,North,-999,-999.0,0.0,52,0.00,,---,0.00,VWS V14.01,2013-08-31 16:52:00,
2013-08-31 12:57:00,96.3,74.0,29.76,North,-999,-999.0,0.0,49,0.00,,---,0.00,VWS V14.01,2013-08-31 16:57:00,
2013-08-31 13:03:00,94.7,74.3,29.76,North,-999,-999.0,0.0,52,0.00,,---,0.00,VWS V14.01,2013-08-31 17:03:00,
2013-08-31 13:08:00,94.0,73.7,29.76,North,-999,-999.0,0.0,52,0.00,,---,0.00,VWS V14.01,2013-08-31 17:08:00,
2013-08-31 13:13:00,94.0,73.7,29.76,North,-999,-999.0,0.0,52,0.00,,---,0.00,VWS V14.01,2013-08-31 17:13:00,
2013-08-31 13:18:00,93.8,73.5,29.76,North,-999,-999.0,0.0,52,0.00,,---,0.00,VWS V14.01,2013-08-31 17:18:00,
2013-08-31 13:23:00,95.2,74.8,29.75,North,-999,-999.0,0.0,52,0.00,,---,0.00,VWS V14.01,2013-08-31 17:23:00,
2013-08-31 13:28:00,97.2,74.2,29.75,North,-999,-999.0,0.0,48,0.00,,---,0.00,VWS V14.01,2013-08-31 17:28:00,
2013-08-31 13:33:00,95.0,73.5,29.75,North,-999,-999.0,0.0,50,0.00,,---,0.00,VWS V14.01,2013-08-31 17:33:00,
2013-08-31 13:38:00,96.1,75.1,29.75,North,-999,-999.0,0.0,51,0.00,,---,0.00,VWS V14.01,2013-08-31 17:38:00,
2013-08-31 13:43:00,94.5,73.6,29.75,North,-999,-999.0,0.0,51,0.00,,---,0.00,VWS V14.01,2013-08-31 17:43:00,
2013-08-31 13:48:00,91.6,73.2,29.74,North,-999,-999.0,0.0,55,0.00,,---,0.00,VWS V14.01,2013-08-31 17:48:00,
2013-08-31 13:53:00,93.1,74.6,29.74,North,-999,-999.0,0.0,55,0.00,,---,0.00,VWS V14.01,2013-08-31 17:53:00,
2013-08-31 13:58:00,96.1,75.6,29.74,North,-999,-999.0,0.0,52,0.00,,---,0.00,VWS V14.01,2013-08-31 17:58:00,
2013-08-31 14:04:00,97.9,75.5,29.74,North,-999,-999.0,0.0,49,0.00,,---,0.00,VWS V14.01,2013-08-31 18:04:00,
2013-08-31 14:09:00,97.6,74.0,29.74,North,-999,-999.0,0.0,47,0.00,,---,0.00,VWS V14.01,2013-08-31 18:09:00,
2013-08-31 14:14:00,94.0,73.1,29.73,North,-999,-999.0,0.0,51,0.00,,---,0.00,VWS V14.01,2013-08-31 18:14:00,
2013-08-31 14:19:00,92.2,73.2,29.73,North,-999,-999.0,0.0,54,0.00,,---,0.00,VWS V14.01,2013-08-31 18:19:00,
2013-08-31 14:24:00,91.1,72.7,29.73,North,-999,-999.0,0.0,55,0.00,,---,0.00,VWS V14.01,2013-08-31 18:24:00,
2013-08-31 14:29:00,92.9,73.3,29.73,North,-999,-999.0,0.0,53,0.00,,---,0.00,VWS V14.01,2013-08-31 18:29:00,
2013-08-31 14:34:00,93.2,73.5,29.72,North,-999,-999.0,0.0,53,0.00,,---,0.00,VWS V14.01,2013-08-31 18:34:00,
2013-08-31 14:39:00,94.0,73.7,29.72,North,-999,-999.0,0.0,52,0.00,,---,0.00,VWS V14.01,2013-08-31 18:39:00,
2013-08-31 14:44:00,94.0,73.7,29.72,North,-999,-999.0,0.0,52,0.00,,---,0.00,VWS V14.01,2013-08-31 18:44:00,
2013-08-31 14:49:00,95.0,74.6,29.72,North,-999,-999.0,0.0,52,0.00,,---,0.00,VWS V14.01,2013-08-31 18:49:00,
2013-08-31 14:54:00,96.3,74.7,29.72,North,-999,-999.0,0.0,50,0.00,,---,0.00,VWS V14.01,2013-08-31 18:54:00,
2013-08-31 14:59:00,95.9,74.9,29.72,North,-999,-999.0,0.0,51,0.00,,---,0.00,VWS V14.01,2013-08-31 18:59:00,
2013-08-31 15:04:00,96.5,74.2,29.72,North,-999,-999.0,0.0,49,0.00,,---,0.00,VWS V14.01,2013-08-31 19:04:00,
2013-08-31 15:10:00,94.5,73.0,29.72,North,-999,-999.0,0.0,50,0.00,,---,0.00,VWS V14.01,2013-08-31 19:10:00,
2013-08-31 15:15:00,95.0,72.9,29.72,North,-999,-999.0,0.0,49,0.00,,---,0.00,VWS V14.01,2013-08-31 19:15:00,
2013-08-31 15:20:00,97.4,75.1,29.71,North,-999,-999.0,0.0,49,0.00,,---,0.00,VWS V14.01,2013-08-31 19:20:00,
2013-08-31 15:25:00,97.4,74.4,29.71,North,-999,-999.0,0.0,48,0.00,,---,0.00,VWS V14.01,2013-08-31 19:25:00,
2013-08-31 15:30:00,96.8,74.5,29.71,North,-999,-999.0,0.0,49,0.00,,---,0.00,VWS V14.01,2013-08-31 19:30:00,
2013-08-31 15:35:00,96.8,73.3,29.71,North,-999,-999.0,0.0,47,0.00,,---,0.00,VWS V14.01,2013-08-31 19:35:00,
2013-08-31 15:40:00,95.0,72.2,29.72,North,-999,-999.0,0.0,48,0.00,,---,0.00,VWS V14.01,2013-08-31 19:40:00,
2013-08-31 15:45:00,94.3,72.8,29.72,North,-999,-999.0,0.0,50,0.00,,---,0.00,VWS V14.01,2013-08-31 19:45:00,
2013-08-31 15:50:00,94.1,72.0,29.72,North,-999,-999.0,0.0,49,0.00,,---,0.00,VWS V14.01,2013-08-31 19:50:00,
2013-08-31 15:55:00,93.4,72.6,29.72,North,-999,-999.0,0.0,51,0.00,,---,0.00,VWS V14.01,2013-08-31 19:55:00,
2013-08-31 16:00:00,92.7,71.9,29.73,North,-999,-999.0,0.0,51,0.00,,---,0.00,VWS V14.01,2013-08-31 20:00:00,
2013-08-31 16:06:00,90.0,70.0,29.72,North,-999,-999.0,0.0,52,0.00,,---,0.00,VWS V14.01,2013-08-31 20:06:00,
2013-08-31 16:11:00,87.3,69.2,29.74,North,-999,-999.0,0.0,55,0.00,,---,0.00,VWS V14.01,2013-08-31 20:11:00,
2013-08-31 16:16:00,85.7,69.2,29.75,North,-999,-999.0,0.0,58,0.00,,---,0.00,VWS V14.01,2013-08-31 20:16:00,
2013-08-31 16:21:00,82.8,68.0,29.77,North,-999,-999.0,0.0,61,0.28,,---,0.28,VWS V14.01,2013-08-31 20:21:00,
2013-08-31 16:26:00,79.2,67.7,29.74,North,-999,-999.0,0.0,68,0.39,,---,0.39,VWS V14.01,2013-08-31 20:26:00,
2013-08-31 16:31:00,76.3,67.4,29.74,North,-999,-999.0,0.0,74,0.44,,---,0.44,VWS V14.01,2013-08-31 20:31:00,
2013-08-31 16:36:00,75.1,66.6,29.75,North,-999,-999.0,0.0,75,0.46,,---,0.46,VWS V14.01,2013-08-31 20:36:00,
2013-08-31 16:41:00,74.3,67.0,29.74,North,-999,-999.0,0.0,78,0.48,,---,0.48,VWS V14.01,2013-08-31 20:41:00,
2013-08-31 16:46:00,73.8,66.2,29.74,North,-999,-999.0,0.0,77,0.49,,---,0.49,VWS V14.01,2013-08-31 20:46:00,
2013-08-31 16:51:00,73.3,66.0,29.75,North,-999,-999.0,0.0,78,0.49,,---,0.49,VWS V14.01,2013-08-31 20:51:00,
2013-08-31 16:56:00,72.9,66.4,29.75,North,-999,-999.0,0.0,80,0.50,,---,0.50,VWS V14.01,2013-08-31 20:56:00,
2013-08-31 17:01:00,72.7,66.2,29.74,North,-999,-999.0,0.0,80,0.51,,---,0.51,VWS V14.01,2013-08-31 21:01:00,
2013-08-31 17:07:00,72.5,66.3,29.73,North,-999,-999.0,0.0,81,0.51,,---,0.51,VWS V14.01,2013-08-31 21:07:00,
2013-08-31 17:12:00,71.8,66.0,29.73,North,-999,-999.0,0.0,82,0.51,,---,0.51,VWS V14.01,2013-08-31 21:12:00,
2013-08-31 17:17:00,71.6,65.8,29.72,North,-999,-999.0,0.0,82,0.51,,---,0.51,VWS V14.01,2013-08-31 21:17:00,
2013-08-31 17:22:00,71.8,66.0,29.72,North,-999,-999.0,0.0,82,0.22,,---,0.51,VWS V14.01,2013-08-31 21:22:00,
2013-08-31 17:27:00,72.0,66.2,29.73,North,-999,-999.0,0.0,82,0.12,,---,0.51,VWS V14.01,2013-08-31 21:27:00,
2013-08-31 17:32:00,72.2,66.4,29.73,North,-999,-999.0,0.0,82,0.07,,---,0.51,VWS V14.01,2013-08-31 21:32:00,
2013-08-31 17:37:00,72.2,66.4,29.73,North,-999,-999.0,0.0,82,0.05,,---,0.51,VWS V14.01,2013-08-31 21:37:00,
2013-08-31 17:42:00,72.4,66.6,29.73,North,-999,-999.0,0.0,82,0.03,,---,0.51,VWS V14.01,2013-08-31 21:42:00,
2013-08-31 17:47:00,72.5,66.7,29.72,North,-999,-999.0,0.0,82,0.02,,---,0.51,VWS V14.01,2013-08-31 21:47:00,
2013-08-31 17:52:00,72.9,67.4,29.72,North,-999,-999.0,0.0,83,0.02,,---,0.51,VWS V14.01,2013-08-31 21:52:00,
2013-08-31 17:57:00,73.1,67.6,29.72,North,-999,-999.0,0.0,83,0.01,,---,0.51,VWS V14.01,2013-08-31 21:57:00,
2013-08-31 18:02:00,73.3,67.8,29.73,North,-999,-999.0,0.0,83,0.00,,---,0.51,VWS V14.01,2013-08-31 22:02:00,
2013-08-31 18:08:00,73.1,68.0,29.73,North,-999,-999.0,0.0,84,0.00,,---,0.51,VWS V14.01,2013-08-31 22:08:00,
2013-08-31 18:13:00,73.6,68.8,29.73,North,-999,-999.0,0.0,85,0.00,,---,0.51,VWS V14.01,2013-08-31 22:13:00,
2013-08-31 18:18:00,74.2,69.1,29.73,North,-999,-999.0,0.0,84,0.00,,---,0.51,VWS V14.01,2013-08-31 22:18:00,
2013-08-31 18:23:00,75.2,70.0,29.73,North,-999,-999.0,0.0,84,0.00,,---,0.51,VWS V14.01,2013-08-31 22:23:00,
2013-08-31 18:28:00,76.0,70.1,29.73,North,-999,-999.0,0.0,82,0.00,,---,0.51,VWS V14.01,2013-08-31 22:28:00,
2013-08-31 18:33:00,76.7,70.4,29.73,North,-999,-999.0,0.0,81,0.00,,---,0.51,VWS V14.01,2013-08-31 22:33:00,
2013-08-31 18:38:00,77.6,71.3,29.73,North,-999,-999.0,0.0,81,0.00,,---,0.51,VWS V14.01,2013-08-31 22:38:00,
2013-08-31 18:43:00,78.7,72.0,29.73,North,-999,-999.0,0.0,80,0.00,,---,0.51,VWS V14.01,2013-08-31 22:43:00,
2013-08-31 18:48:00,79.2,71.8,29.74,North,-999,-999.0,0.0,78,0.00,,---,0.51,VWS V14.01,2013-08-31 22:48:00,
2013-08-31 18:53:00,79.9,72.1,29.74,North,-999,-999.0,0.0,77,0.00,,---,0.51,VWS V14.01,2013-08-31 22:53:00,
2013-08-31 18:58:00,80.3,72.1,29.73,North,-999,-999.0,0.0,76,0.00,,---,0.51,VWS V14.01,2013-08-31 22:58:00,
2013-08-31 19:04:00,80.3,72.1,29.73,North,-999,-999.0,0.0,76,0.00,,---,0.51,VWS V14.01,2013-08-31 23:04:00,
2013-08-31 19:09:00,79.6,71.4,29.73,North,-999,-999.0,0.0,76,0.00,,---,0.51,VWS V14.01,2013-08-31 23:09:00,
2013-08-31 19:14:00,78.8,71.0,29.73,North,-999,-999.0,0.0,77,0.00,,---,0.51,VWS V14.01,2013-08-31 23:14:00,
2013-08-31 19:19:00,77.8,70.8,29.73,North,-999,-999.0,0.0,79,0.00,,---,0.51,VWS V14.01,2013-08-31 23:19:00,
2013-08-31 19:24:00,76.9,69.9,29.73,North,-999,-999.0,0.0,79,0.00,,---,0.51,VWS V14.01,2013-08-31 23:24:00,
2013-08-31 19:29:00,76.3,69.7,29.74,North,-999,-999.0,0.0,80,0.00,,---,0.51,VWS V14.01,2013-08-31 23:29:00,
2013-08-31 19:34:00,76.1,69.5,29.73,North,-999,-999.0,0.0,80,0.00,,---,0.51,VWS V14.01,2013-08-31 23:34:00,
2013-08-31 19:39:00,75.6,69.0,29.73,North,-999,-999.0,0.0,80,0.00,,---,0.51,VWS V14.01,2013-08-31 23:39:00,
2013-08-31 19:44:00,74.9,68.7,29.73,North,-999,-999.0,0.0,81,0.00,,---,0.51,VWS V14.01,2013-08-31 23:44:00,
2013-08-31 19:49:00,74.3,68.4,29.73,North,-999,-999.0,0.0,82,0.00,,---,0.51,VWS V14.01,2013-08-31 23:49:00,
2013-08-31 19:54:00,74.0,68.5,29.73,North,-999,-999.0,0.0,83,0.00,,---,0.51,VWS V14.01,2013-08-31 23:54:00,
2013-08-31 19:59:00,73.6,68.1,29.73,North,-999,-999.0,0.0,83,0.00,,---,0.51,VWS V14.01,2013-08-31 23:59:00,
2013-08-31 20:04:00,73.4,68.3,29.72,North,-999,-999.0,0.0,84,0.00,,---,0.51,VWS V14.01,2013-09-01 00:04:00,
2013-08-31 20:10:00,73.1,68.0,29.73,North,-999,-999.0,0.0,84,0.00,,---,0.51,VWS V14.01,2013-09-01 00:10:00,
2013-08-31 20:15:00,73.1,68.0,29.74,North,-999,-999.0,0.0,84,0.00,,---,0.51,VWS V14.01,2013-09-01 00:15:00,
2013-08-31 20:20:00,72.7,67.6,29.74,North,-999,-999.0,0.0,84,0.00,,---,0.51,VWS V14.01,2013-09-01 00:20:00,
2013-08-31 20:25:00,72.4,67.6,29.73,North,-999,-999.0,0.0,85,0.00,,---,0.51,VWS V14.01,2013-09-01 00:25:00,
2013-08-31 20:30:00,72.4,67.6,29.73,North,-999,-999.0,0.0,85,0.00,,---,0.51,VWS V14.01,2013-09-01 00:30:00,
2013-08-31 20:35:00,72.4,67.6,29.74,North,-999,-999.0,0.0,85,0.00,,---,0.51,VWS V14.01,2013-09-01 00:35:00,
2013-08-31 20:40:00,72.2,67.4,29.74,North,-999,-999.0,0.0,85,0.00,,---,0.51,VWS V14.01,2013-09-01 00:40:00,
2013-08-31 20:45:00,72.2,67.4,29.74,North,-999,-999.0,0.0,85,0.00,,---,0.51,VWS V14.01,2013-09-01 00:45:00,
2013-08-31 20:50:00,72.2,67.4,29.74,North,-999,-999.0,0.0,85,0.00,,---,0.51,VWS V14.01,2013-09-01 00:50:00,
2013-08-31 20:55:00,72.0,67.2,29.74,North,-999,-999.0,0.0,85,0.00,,---,0.51,VWS V14.01,2013-09-01 00:55:00,
2013-08-31 21:00:00,72.0,67.6,29.74,North,-999,-999.0,0.0,86,0.00,,---,0.51,VWS V14.01,2013-09-01 01:00:00,
2013-08-31 21:05:00,71.8,67.4,29.74,North,-999,-999.0,0.0,86,0.00,,---,0.51,VWS V14.01,2013-09-01 01:05:00,
2013-08-31 21:11:00,71.6,67.2,29.74,North,-999,-999.0,0.0,86,0.00,,---,0.51,VWS V14.01,2013-09-01 01:11:00,
2013-08-31 21:16:00,71.5,67.1,29.74,North,-999,-999.0,0.0,86,0.00,,---,0.51,VWS V14.01,2013-09-01 01:16:00,
2013-08-31 21:21:00,71.5,67.4,29.74,North,-999,-999.0,0.0,87,0.00,,---,0.51,VWS V14.01,2013-09-01 01:21:00,
2013-08-31 21:26:00,71.5,67.4,29.74,North,-999,-999.0,0.0,87,0.00,,---,0.51,VWS V14.01,2013-09-01 01:26:00,
2013-08-31 21:31:00,71.6,67.5,29.74,North,-999,-999.0,0.0,87,0.00,,---,0.51,VWS V14.01,2013-09-01 01:31:00,
2013-08-31 21:36:00,71.6,67.5,29.74,North,-999,-999.0,0.0,87,0.00,,---,0.51,VWS V14.01,2013-09-01 01:36:00,
2013-08-31 21:41:00,71.5,67.4,29.75,North,-999,-999.0,0.0,87,0.00,,---,0.51,VWS V14.01,2013-09-01 01:41:00,
2013-08-31 21:46:00,71.5,67.4,29.75,North,-999,-999.0,0.0,87,0.00,,---,0.51,VWS V14.01,2013-09-01 01:46:00,
2013-08-31 21:51:00,71.3,67.2,29.75,North,-999,-999.0,0.0,87,0.00,,---,0.51,VWS V14.01,2013-09-01 01:51:00,
2013-08-31 21:56:00,71.1,67.4,29.75,North,-999,-999.0,0.0,88,0.00,,---,0.51,VWS V14.01,2013-09-01 01:56:00,
2013-08-31 22:01:00,71.1,67.4,29.75,North,-999,-999.0,0.0,88,0.00,,---,0.51,VWS V14.01,2013-09-01 02:01:00,
2013-08-31 22:07:00,70.9,67.2,29.74,North,-999,-999.0,0.0,88,0.00,,---,0.51,VWS V14.01,2013-09-01 02:07:00,
2013-08-31 22:12:00,70.9,67.2,29.74,North,-999,-999.0,0.0,88,0.00,,---,0.51,VWS V14.01,2013-09-01 02:12:00,
2013-08-31 22:17:00,70.9,67.2,29.74,North,-999,-999.0,0.0,88,0.00,,---,0.51,VWS V14.01,2013-09-01 02:17:00,
2013-08-31 22:22:00,70.9,67.2,29.74,North,-999,-999.0,0.0,88,0.00,,---,0.51,VWS V14.01,2013-09-01 02:22:00,
2013-08-31 22:27:00,70.9,67.2,29.74,North,-999,-999.0,0.0,88,0.00,,---,0.51,VWS V14.01,2013-09-01 02:27:00,
2013-08-31 22:32:00,70.7,67.0,29.74,North,-999,-999.0,0.0,88,0.00,,---,0.51,VWS V14.01,2013-09-01 02:32:00,
2013-08-31 22:37:00,70.7,67.0,29.75,North,-999,-999.0,0.0,88,0.00,,---,0.51,VWS V14.01,2013-09-01 02:37:00,
2013-08-31 22:42:00,70.7,67.0,29.75,North,-999,-999.0,0.0,88,0.00,,---,0.51,VWS V14.01,2013-09-01 02:42:00,
2013-08-31 22:47:00,70.7,67.0,29.75,North,-999,-999.0,0.0,88,0.00,,---,0.51,VWS V14.01,2013-09-01 02:47:00,
2013-08-31 22:52:00,70.4,66.7,29.74,North,-999,-999.0,0.0,88,0.00,,---,0.51,VWS V14.01,2013-09-01 02:52:00,
2013-08-31 22:57:00,70.4,66.7,29.74,North,-999,-999.0,0.0,88,0.00,,---,0.51,VWS V14.01,2013-09-01 02:57:00,
2013-08-31 23:02:00,70.4,67.0,29.75,North,-999,-999.0,0.0,89,0.00,,---,0.51,VWS V14.01,2013-09-01 03:02:00,
2013-08-31 23:08:00,70.4,67.0,29.74,North,-999,-999.0,0.0,89,0.00,,---,0.51,VWS V14.01,2013-09-01 03:08:00,
2013-08-31 23:13:00,70.2,66.8,29.74,North,-999,-999.0,0.0,89,0.00,,---,0.51,VWS V14.01,2013-09-01 03:13:00,
2013-08-31 23:18:00,70.2,66.8,29.74,North,-999,-999.0,0.0,89,0.00,,---,0.51,VWS V14.01,2013-09-01 03:18:00,
2013-08-31 23:23:00,70.2,66.8,29.74,North,-999,-999.0,0.0,89,0.00,,---,0.51,VWS V14.01,2013-09-01 03:23:00,
2013-08-31 23:28:00,70.2,66.8,29.74,North,-999,-999.0,0.0,89,0.00,,---,0.51,VWS V14.01,2013-09-01 03:28:00,
2013-08-31 23:33:00,70.2,66.8,29.75,North,-999,-999.0,0.0,89,0.00,,---,0.51,VWS V14.01,2013-09-01 03:33:00,
2013-08-31 23:38:00,70.2,66.8,29.75,North,-999,-999.0,0.0,89,0.00,,---,0.51,VWS V14.01,2013-09-01 03:38:00,
2013-08-31 23:43:00,70.2,66.8,29.75,North,-999,-999.0,0.0,89,0.00,,---,0.51,VWS V14.01,2013-09-01 03:43:00,
2013-08-31 23:48:00,70.2,66.8,29.75,North,-999,-999.0,0.0,89,0.00,,---,0.51,VWS V14.01,2013-09-01 03:48:00,
2013-08-31 23:53:00,70.2,66.8,29.74,North,-999,-999.0,0.0,89,0.00,,---,0.51,VWS V14.01,2013-09-01 03:53:00,
2013-08-31 23:58:00,70.2,66.8,29.74,North,-999,-999.0,0.0,89,0.00,,---,0.51,VWS V14.01,2013-09-01 03:58:00,